Flag for U.S.A. Weather past 2 weeks in Sedona, Arizona, U.S.A.

Now
77 °F

Scattered clouds.


Feels Like: 78 °F
Forecast: 70 / 89 °F
Wind: No wind

Location: Sedona Airport

Current Time: Jul 28, 2014 at 9:28:30 AM

Latest Report: Jul 28, 2014 at 8:55 AM


Visibility: 10 mi

Pressure: 30.33 "Hg

Humidity: 42%

Dew point: 52 °F

Location of SedonaLocation

Historic Weather in Sedona — Graph

°F

Sedona temperature yesterday

Maximum temperature yesterday: 95 °F (at 3:15 PM)
Minimum temperature yesterday: 73 °F (at 4:15 AM)
Average temperature yesterday: 82 °F

Past Weeks' High & Low Weather Summary

 TemperatureHumidityPressure
High100 °F (Jul 24, 1:55 PM)78% (Jul 14, 3:15 AM)30.33 "Hg (Jul 14, 3:15 AM)
Low68 °F (Jul 14, 3:15 AM)12% (Jul 18, 1:15 PM)30.02 "Hg (Jul 17, 5:15 PM)
Average81 °F34%30.18 "Hg
* Reported Jul 13 8:15 AM — Jul 28 8:15 AM, Sedona, Weather by CustomWeather, © 2014

Note: Actual official high and low records may vary slightly from our data, if they occured in-between our weather recording intervals... More about our weather records

Advertising

Sedona weather history for previous 24 hours

 ConditionsComfort  
Time TempWeatherWind HumidityBarometerVisibility
8:15 AM
Jul 28
75 °FScattered clouds.No wind44%30.32 "Hg10 mi
7:55 AM77 °FScattered clouds.5 mph44%30.32 "Hg10 mi
7:35 AM75 °FSunny.No wind47%30.31 "Hg10 mi
7:15 AM72 °FSunny.3 mph53%30.31 "Hg10 mi
6:55 AM72 °FSunny.No wind50%30.30 "Hg10 mi
6:35 AM70 °FSunny.No wind53%30.29 "Hg10 mi
6:15 AM72 °FSunny.No wind50%30.28 "Hg10 mi
5:55 AM70 °FSunny.No wind53%30.27 "Hg10 mi
5:35 AM72 °FSunny.No wind50%30.26 "Hg10 mi
5:15 AM70 °FClear.No wind57%30.26 "Hg10 mi
4:55 AM72 °FClear.3 mph50%30.26 "Hg10 mi
4:35 AM72 °FClear.9 mph50%30.26 "Hg10 mi
4:15 AM73 °FClear.8 mph44%30.26 "Hg10 mi
3:55 AM72 °FClear.6 mph50%30.26 "Hg10 mi
3:35 AM72 °FClear.8 mph50%30.25 "Hg10 mi
3:15 AM72 °FClear.12 mph50%30.25 "Hg10 mi
2:55 AM72 °FClear.9 mph53%30.26 "Hg10 mi
2:15 AM70 °FPassing clouds.10 mph60%30.28 "Hg10 mi
1:55 AM68 °FPartly cloudy.13 mph69%30.28 "Hg10 mi
1:35 AM68 °FMostly cloudy.7 mph69%30.29 "Hg10 mi
1:15 AM72 °FMostly cloudy.9 mph57%30.30 "Hg10 mi
12:55 AM72 °FPartly cloudy.5 mph53%30.30 "Hg10 mi
12:15 AM73 °FLight rain. Overcast.16 mph50%30.30 "Hg10 mi
11:55 PM
Jul 27
75 °FMostly cloudy.15 mph44%30.29 "Hg10 mi
11:15 PM73 °FPassing clouds.3 mph47%30.27 "Hg10 mi
10:55 PM73 °FClear.5 mph47%30.27 "Hg10 mi
10:35 PM73 °FClear.No wind50%30.26 "Hg10 mi
10:15 PM75 °FPassing clouds.No wind44%30.25 "Hg10 mi
9:55 PM77 °FPassing clouds.9 mph42%30.25 "Hg10 mi
9:35 PM79 °FPassing clouds.8 mph32%30.24 "Hg10 mi
9:15 PM77 °FOvercast.7 mph36%30.23 "Hg10 mi
8:55 PM75 °FLight rain. Mostly cloudy.3 mph44%30.24 "Hg10 mi
8:35 PM79 °FThundershowers. Overcast.8 mph32%30.23 "Hg10 mi
8:15 PM81 °FPassing clouds.12 mph30%30.21 "Hg10 mi
7:55 PM79 °FThundershowers. Passing clouds.17 mph32%30.18 "Hg10 mi
7:15 PM81 °FSunny.26 mph30%30.17 "Hg10 mi
6:55 PM84 °FThundershowers. Scattered clouds.17 mph25%30.15 "Hg10 mi
6:35 PM86 °FScattered clouds.24 mph25%30.15 "Hg10 mi
6:15 PM88 °FThundershowers. Sunny.21 mph24%30.14 "Hg10 mi
5:55 PM91 °FSunny.13 mph21%30.13 "Hg10 mi
5:35 PM91 °FThundershowers. Sunny.13 mph21%30.12 "Hg10 mi
5:15 PM91 °FThundershowers. Sunny.13 mph21%30.12 "Hg10 mi
4:55 PM95 °FSunny.10 mph18%30.12 "Hg10 mi
4:15 PM95 °FSunny.10 mph16%30.11 "Hg10 mi
3:55 PM93 °FSunny.5 mph17%30.12 "Hg10 mi
3:35 PM93 °FSunny.5 mph17%30.13 "Hg10 mi
3:15 PM95 °FSunny.7 mph16%30.13 "Hg10 mi
2:55 PM93 °FSunny.8 mph19%30.15 "Hg10 mi
2:35 PM91 °FSunny.6 mph23%30.15 "Hg10 mi
2:15 PM91 °FSunny.9 mph24%30.16 "Hg10 mi
1:55 PM91 °FSunny.12 mph24%30.16 "Hg10 mi
1:35 PM91 °FSunny.9 mph24%30.17 "Hg10 mi
1:15 PM91 °FSunny.6 mph23%30.17 "Hg10 mi
12:55 PM86 °FSunny.10 mph29%30.18 "Hg10 mi
12:15 PM82 °FSunny.8 mph40%30.22 "Hg10 mi
11:55 AM81 °FScattered clouds.No wind42%30.25 "Hg10 mi
11:35 AM79 °FScattered clouds.5 mph45%30.27 "Hg10 mi
11:15 AM79 °FSunny.7 mph48%30.28 "Hg10 mi
10:55 AM81 °FSunny.No wind45%30.30 "Hg10 mi
10:35 AM81 °FSunny.8 mph45%30.32 "Hg10 mi
10:15 AM82 °FSunny.9 mph42%30.32 "Hg10 mi
9:15 AM81 °FScattered clouds.12 mph48%30.33 "Hg10 mi
Weather by CustomWeather, © 2014

See weather overviewHow to use our weather pages